Weather reports worldwide

Advertisment
Leeming, United Kingdom (3257): temperature & dewpoint: 13.02.2020 10:00:00 - 19.02.2020 10:00:00 (GMT)Leeming, United Kingdom (3257): temperature -20cm & temperature -100cm: 13.02.2020 10:00:00 - 19.02.2020 10:00:00 (GMT)Leeming, United Kingdom (3257): wind speed & gusts: 13.02.2020 10:00:00 - 19.02.2020 10:00:00 (GMT)Leeming, United Kingdom (3257): wind direction: 13.02.2020 10:00:00 - 19.02.2020 10:00:00 (GMT)Leeming, United Kingdom (3257): reduced air pressure: 13.02.2020 10:00:00 - 19.02.2020 10:00:00 (GMT)Leeming, United Kingdom (3257): visibility: 13.02.2020 10:00:00 - 19.02.2020 10:00:00 (GMT)Leeming, United Kingdom (3257): sunshine duration: 13.02.2020 10:00:00 - 19.02.2020 10:00:00 (GMT)Leeming, United Kingdom (3257): precipitation: 13.02.2020 10:00:00 - 19.02.2020 10:00:00 (GMT)
Date & Time tt [°C] td [°C] tt -20cm [°C] tt -100cm [°C] ff [km/h] ff [kn] fx [km/h] fx [kn] dd ppp [hPa] vv [km] sd [min] rr [mm]
19.02.2020 10:00:00 5,0 2,0 - - 16 9 - - WSW - 10 - -
19.02.2020 09:00:00 4,8 1,1 5,0 6,2 15 8 - - SW 1015,0 10 18 0,0
19.02.2020 08:00:00 3,2 0,0 - - 18 10 - - SW 1014,9 10 0 0,0
19.02.2020 07:00:00 3,1 -0,1 - - 11 6 - - WSW 1014,5 26 0 0,0
19.02.2020 06:00:00 3,1 -0,3 - - 22 12 - - WSW 1014,1 26 0 0,0
19.02.2020 05:00:00 2,7 -0,4 - - 21 11 - - SW 1013,6 26 0 -
19.02.2020 04:00:00 2,6 -0,6 - - 18 10 - - SW 1013,1 10 0 0,0
19.02.2020 03:00:00 3,2 -0,2 - - 18 10 - - WSW 1012,8 28 0 0,0
19.02.2020 02:00:00 3,8 0,1 - - 24 13 - - W 1012,3 30 0 0,0
19.02.2020 01:00:00 3,6 0,2 - - 21 11 - - WSW 1011,5 30 0 0,0
19.02.2020 00:00:00 3,2 0,3 - - 22 12 - - W 1010,5 40 - 0,0
18.02.2020 23:00:00 3,3 0,4 - - 16 9 - - W 1009,5 28 0 0,0
18.02.2020 22:00:00 3,4 0,4 - - 24 13 46 25 WSW 1008,9 10 0 0,6
18.02.2020 21:00:00 3,8 1,3 - - 26 14 - - W 1009,1 2,6 0 0,0
18.02.2020 20:00:00 3,5 0,2 - - 16 9 - - W 1008,2 30 0 0,0
18.02.2020 19:00:00 4,5 0,8 - - 26 14 - - W 1007,7 10 0 0,0
18.02.2020 18:00:00 5,2 1,5 - - 21 11 48 26 W 1007,1 50 0 0,0
18.02.2020 17:00:00 4,7 2,3 - - 18 10 - - SW 1006,7 55 6 0,0
18.02.2020 16:00:00 4,3 2,5 - - 26 14 63 34 WSW 1006,8 10 0 1,4
18.02.2020 15:00:00 5,6 3,3 - - 42 23 67 36 W 1007,3 10 30 1,0
18.02.2020 14:00:00 7,0 3,4 - - 39 21 57 31 SW 1007,3 10 18 0,4
18.02.2020 13:00:00 8,3 2,8 - - 42 23 63 34 SW 1008,2 25 54 0,0
18.02.2020 12:00:00 8,4 2,6 - - 39 21 59 32 WSW 1009,1 10 60 0,0
18.02.2020 11:00:00 7,8 2,7 - - 39 21 63 34 WSW 1009,5 10 12 0,0
18.02.2020 10:00:00 6,2 2,6 - - 35 19 63 34 SW 1009,7 25 48 -
18.02.2020 09:00:00 6,2 2,3 5,4 6,2 34 18 59 32 WSW 1009,6 10 12 0,0
18.02.2020 08:00:00 5,5 1,6 - - 34 18 50 27 SW 1009,5 10 0 0,0
18.02.2020 07:00:00 4,8 1,4 - - 22 12 - - SW 1010,2 10 0 0,0
18.02.2020 06:00:00 5,2 1,0 - - 24 13 48 26 WSW 1010,8 28 0 0,0
18.02.2020 05:00:00 4,9 1,1 - - 24 13 - - WSW 1010,5 26 0 -
18.02.2020 04:00:00 4,9 1,1 - - 34 18 61 33 WSW 1010,1 27 0 0,0
18.02.2020 03:00:00 5,1 0,4 - - 29 16 57 31 WSW 1010,1 26 0 -
18.02.2020 02:00:00 5,1 0,5 - - 31 17 59 32 WSW 1010,3 29 0 -
18.02.2020 01:00:00 5,1 0,5 - - 31 17 55 30 WSW 1009,1 24 0 0,0
18.02.2020 00:00:00 5,3 0,4 - - 31 17 52 28 W 1008,5 26 - -
17.02.2020 23:00:00 5,0 0,2 - - 35 19 61 33 WSW 1007,9 28 0 0,0
17.02.2020 22:00:00 4,8 -0,2 - - 31 17 52 28 WSW 1006,7 28 0 0,0
17.02.2020 21:00:00 5,0 -1,1 - - 35 19 57 31 WSW 1006,2 29 0 0,0
17.02.2020 20:00:00 5,6 -0,6 - - 39 21 61 33 WSW 1005,8 30 0 0,0
17.02.2020 19:00:00 5,5 -0,2 - - 31 17 61 33 WSW 1005,5 30 0 0,0
17.02.2020 18:00:00 6,2 0,5 - - 37 20 55 30 WSW 1004,3 30 0 0,0
17.02.2020 17:00:00 7,0 2,2 - - 42 23 65 35 WSW 1002,9 16 6 0,0
17.02.2020 16:00:00 8,3 1,9 - - 37 20 59 32 WSW 1002,6 25 36 0,0
17.02.2020 15:00:00 8,1 3,0 - - 35 19 59 32 WSW 1002,0 10 0 0,0
17.02.2020 14:00:00 8,3 3,2 - - 35 19 59 32 W 1000,9 10 0 0,0
17.02.2020 13:00:00 8,9 3,5 - - 39 21 63 34 WSW 999,7 10 6 0,0
17.02.2020 12:00:00 8,6 3,6 - - 31 17 57 31 WSW 999,1 10 18 0,0
17.02.2020 11:00:00 8,2 3,8 - - 41 22 59 32 WSW 997,8 10 0 0,0
17.02.2020 10:00:00 7,5 3,4 - - 44 24 65 35 WSW 996,4 25 6 0,0
17.02.2020 09:00:00 7,4 2,7 5,7 6,2 44 24 65 35 WSW 995,8 25 0 0,0
17.02.2020 08:00:00 7,1 2,5 - - 28 15 48 26 SW 995,3 20 0 0,0
17.02.2020 07:00:00 5,6 2,5 - - 34 18 61 33 SSW 994,2 10 0 0,0
17.02.2020 06:00:00 6,5 1,5 - - 50 27 83 45 SW 993,1 19 0 0,0
17.02.2020 05:00:00 6,7 0,6 - - 55 30 80 43 SW 992,6 22 0 0,0
17.02.2020 04:00:00 6,5 0,4 - - 52 28 87 47 SW 992,6 19 0 0,0
17.02.2020 03:00:00 6,5 0,7 - - 59 32 87 47 SW 992,0 13 0 0,0
17.02.2020 02:00:00 6,3 -0,1 - - 48 26 74 40 SW 992,2 20 0 0,0
17.02.2020 01:00:00 6,2 0,0 - - 46 25 81 44 SW 991,8 21 0 0,0
17.02.2020 00:00:00 5,9 0,8 - - 42 23 68 37 SW 990,9 16 - 0,0
16.02.2020 23:00:00 5,9 0,8 - - 46 25 68 37 SW 990,2 10 0 0,0
16.02.2020 22:00:00 6,1 1,0 - - 44 24 63 34 SW 989,0 25 0 0,0
16.02.2020 21:00:00 6,0 1,6 - - 44 24 65 35 SW 988,3 27 0 0,2
16.02.2020 20:00:00 5,7 1,9 - - 37 20 65 35 SW 987,1 15 0 0,0
16.02.2020 19:00:00 5,5 0,9 - - 39 21 85 46 SW 986,4 30 0 0,2
16.02.2020 18:00:00 7,4 0,3 - - 35 19 70 38 SW 985,4 25 0 0,0
16.02.2020 17:00:00 7,3 0,8 - - 42 23 76 41 SW 984,7 23 12 0,0
16.02.2020 16:00:00 8,0 1,3 - - 41 22 65 35 SW 984,1 23 6 0,0
16.02.2020 15:00:00 7,9 1,1 - - 35 19 63 34 SW 983,4 26 42 0,0
16.02.2020 14:00:00 8,3 2,2 - - 37 20 55 30 SSW 983,4 23 18 0,0
16.02.2020 13:00:00 7,7 2,6 - - 35 19 50 27 SSW 983,8 29 0 0,0
16.02.2020 12:00:00 7,4 1,3 - - 28 15 50 27 SW 984,2 30 0 0,0
16.02.2020 11:00:00 7,5 2,9 - - 31 17 54 29 SSW 984,4 30 0 0,0
16.02.2020 10:00:00 7,1 2,6 - - 34 18 50 27 SW 984,1 10 0 0,0
16.02.2020 09:00:00 6,5 2,5 5,7 6,2 29 16 55 30 SW 982,9 30 0 0,0
16.02.2020 08:00:00 6,5 2,2 - - 34 18 61 33 SW 981,4 10 0 0,4
16.02.2020 07:00:00 6,1 4,3 - - 48 26 76 41 SW 980,8 2,2 0 3,0
16.02.2020 06:00:00 7,9 5,5 - - 44 24 70 38 SW 979,7 6 0 1,2
16.02.2020 05:00:00 8,3 5,8 - - 41 22 70 38 SSW 979,4 8 0 1,2
16.02.2020 04:00:00 9,1 6,4 - - 42 23 74 40 SSW 979,4 6 0 1,4
16.02.2020 03:00:00 9,7 7,2 - - 39 21 65 35 SW 979,8 4,8 0 0,8
16.02.2020 02:00:00 9,6 7,6 - - 34 18 54 29 SSW 980,6 3,4 0 2,8
16.02.2020 01:00:00 8,5 7,0 - - 28 15 - - SSE 982,1 5 0 3,2
16.02.2020 00:00:00 7,9 5,3 - - 31 17 78 42 SW 984,2 4,2 - 1,0
15.02.2020 23:00:00 10,5 6,0 - - 39 21 54 29 SSW 984,2 40 0 0,0
15.02.2020 22:00:00 10,4 6,2 - - 37 20 55 30 SSW 984,7 70 0 0,0
15.02.2020 21:00:00 9,5 6,8 - - 39 21 61 33 SW 984,4 35 0 0,0
15.02.2020 20:00:00 9,4 6,2 - - 37 20 93 50 SW 983,6 27 0 2,8
15.02.2020 19:00:00 11,5 10,4 - - 44 24 76 41 S 980,8 2,6 0 1,6
15.02.2020 18:00:00 11,2 9,6 - - 46 25 81 44 S 980,5 6 0 2,4
15.02.2020 17:00:00 11,9 8,5 - - 52 28 81 44 S 982,0 75 0 0,0
15.02.2020 16:00:00 11,6 8,2 - - 48 26 70 38 S 984,7 10 0 0,0
15.02.2020 15:00:00 11,8 8,3 - - 44 24 70 38 S 987,2 55 0 0,0
15.02.2020 14:00:00 11,8 8,2 - - 35 19 63 34 S 989,5 40 0 0,4
15.02.2020 13:00:00 11,5 8,7 - - 39 21 61 33 S 991,6 18 0 1,0
15.02.2020 12:00:00 10,6 9,5 - - 28 15 - - SSE 993,1 11 0 0,8
15.02.2020 11:00:00 8,8 8,4 - - 24 13 - - SSE 994,8 4,0 0 1,0
15.02.2020 10:00:00 7,8 7,4 - - 26 14 - - SE 997,1 3,0 0 0,8
15.02.2020 09:00:00 7,3 6,7 5,0 6,2 31 17 46 25 SE 999,0 4,1 0 0,0
15.02.2020 08:00:00 5,7 5,2 - - 13 7 - - SSE 1001,4 4,0 0 0,0
15.02.2020 07:00:00 4,7 3,8 - - 16 9 - - SSE 1003,6 8 0 0,0
15.02.2020 06:00:00 4,0 3,1 - - 13 7 - - S 1005,1 10 0 0,0
15.02.2020 05:00:00 3,9 2,9 - - 9 5 - - E 1005,2 9 0 0,0
15.02.2020 04:00:00 5,0 3,5 - - 15 8 - - SSE 1007,1 11 0 0,0
15.02.2020 03:00:00 5,4 3,6 - - 13 7 - - S 1008,4 13 0 0,0
15.02.2020 02:00:00 6,0 4,0 - - 13 7 - - ESE 1009,1 10 0 0,0
15.02.2020 01:00:00 5,0 2,8 - - 2 1 - - E 1009,7 12 0 0,0
15.02.2020 00:00:00 7,1 4,5 - - 16 9 - - SSE 1009,7 14 - 0,0
14.02.2020 23:00:00 7,5 4,8 - - 16 9 - - SSW 1009,9 14 0 0,0
14.02.2020 22:00:00 8,0 5,1 - - 24 13 - - SSW 1009,5 15 0 0,0
14.02.2020 21:00:00 9,0 5,6 - - 26 14 - - SSW 1009,9 10 0 0,0
14.02.2020 20:00:00 9,0 6,0 - - 22 12 - - SSW 1009,9 15 0 0,0
14.02.2020 19:00:00 8,8 5,8 - - 15 8 - - S 1009,5 21 0 0,0
14.02.2020 18:00:00 8,7 5,8 - - 24 13 - - S 1008,2 22 0 0,0
14.02.2020 17:00:00 9,3 6,1 - - 31 17 46 25 SSW 1007,9 10 0 0,0
14.02.2020 16:00:00 9,6 6,0 - - 24 13 - - SSW 1007,7 10 0 0,0
14.02.2020 15:00:00 9,9 6,6 - - 29 16 46 25 S 1007,5 10 6 0,2
14.02.2020 14:00:00 7,6 3,8 - - 21 11 48 26 SE 1007,7 10 0 0,0
14.02.2020 13:00:00 8,3 4,2 - - 37 20 52 28 S 1007,4 25 0 0,0
14.02.2020 12:00:00 6,3 2,8 - - 31 17 46 25 SSE 1008,2 10 0 0,0
14.02.2020 11:00:00 5,8 2,9 - - 21 11 - - S 1009,8 10 42 0,0
14.02.2020 10:00:00 4,4 2,6 - - 21 11 - - SE 1010,5 10 18 0,0
14.02.2020 09:00:00 2,3 1,1 4,7 6,2 16 9 - - SE 1011,1 10 0 0,0
14.02.2020 08:00:00 2,4 0,8 - - 18 10 - - SE 1012,0 10 0 0,0
14.02.2020 07:00:00 2,7 1,1 - - 15 8 - - SSE 1012,3 10 0 0,0
14.02.2020 06:00:00 2,5 1,7 - - 11 6 - - SE 1012,4 10 0 0,0
14.02.2020 05:00:00 1,9 1,2 - - 5 3 - - SE 1012,5 16 0 0,0
14.02.2020 04:00:00 2,2 1,6 - - 4 2 - - SSE 1012,9 21 0 0,0
14.02.2020 03:00:00 2,8 1,8 - - 2 1 - - S 1012,1 29 0 0,0
14.02.2020 02:00:00 3,6 2,6 - - 4 2 - - S 1012,0 30 0 0,0
14.02.2020 01:00:00 3,8 2,3 - - 4 2 - - WNW 1011,6 30 0 0,0
14.02.2020 00:00:00 4,7 3,4 - - 8 4 - - W 1010,8 35 - 0,0
13.02.2020 23:00:00 4,9 3,6 - - 11 6 - - WNW 1009,8 35 0 0,0
13.02.2020 22:00:00 5,3 3,5 - - 15 8 - - WNW 1008,9 55 0 0,0
13.02.2020 21:00:00 5,2 3,3 - - 16 9 - - NW 1007,2 55 0 0,0
13.02.2020 20:00:00 4,8 3,8 - - 13 7 - - WNW 1005,3 16 0 0,0
13.02.2020 19:00:00 4,6 3,7 - - 9 5 - - NW 1003,4 6 0 0,0
13.02.2020 18:00:00 4,4 3,0 - - 16 9 - - NNW 1001,4 40 0 0,0
13.02.2020 17:00:00 4,8 3,4 - - 18 10 - - NNW 998,7 20 0 0,0
13.02.2020 16:00:00 5,3 3,3 - - 24 13 - - NNW 996,5 10 0 0,0
13.02.2020 15:00:00 5,1 3,2 - - 26 14 - - NNW 994,5 10 6 0,0
13.02.2020 14:00:00 4,8 2,7 - - 21 11 - - NW 992,9 10 12 0,0
13.02.2020 13:00:00 3,4 2,1 - - 15 8 - - NNW 991,5 25 0 0,0
13.02.2020 12:00:00 3,8 2,8 - - 16 9 - - NW 990,4 30 0 0,0
13.02.2020 11:00:00 4,5 3,8 - - 9 5 - - WNW 989,2 10 0 0,0
13.02.2020 10:00:00 4,2 3,6 - - 5 3 - - SSE 988,5 10 0 0,0

tt = temperature
td = dewpoint
tt -20cm = temperature -20cm
tt -100cm = temperature -100cm
ff = wind speed
fx = gusts
dd = wind direction
ppp = reduced air pressure
vv = visibility
sd = sunshine duration
rr = precipitation

Next stations